[[{"header":{"parameterUnit":"m.s-1","parameterCategory":1,"la1":30.2991,"la2":30.254,"lo1":-89.0895,"lo2":-89.0444,"dy":0.0017,"dx":0.0017,"nx":28,"ny":28,"refTime":"2023-10-20T03:00:00:Z","depth":0,"parameterNumber":2,"parameterNumberName":"U-component_of_WINDS"},"data":[0,0,0,0,0,0,0,0,0,0,0,0,0,0,0,0,0,0,0,0,0,0,0,0,0,0,0,0,0,0,0,0,0,0,0,0,0,0,0,0,0,0,0,0,0,0,0,0,0,0,0,0,0,0,0,0,0,0,5.2759,5.2761,0,5.2938,5.294,5.2942,5.2932,5.293,5.2927,5.2925,5.3106,5.3113,5.312,0,0,0,0,0,0,0,0,0,0,0,0,0,5.241,5.2417,5.2759,5.2761,5.2764,5.2937,5.294,5.2942,5.2933,5.293,5.2927,5.2924,5.3103,5.3112,5.312,0,0,0,0,0,0,0,0,0,0,0,0,0,5.2573,5.2419,5.2759,5.278,5.2784,5.2937,5.294,5.2943,5.2933,5.293,5.2926,5.2922,5.3101,5.3111,5.3122,5.3265,0,0,5.3155,5.3159,0,0,0,0,0,0,0,0,5.2563,5.2585,5.2775,5.2779,5.2783,5.2909,5.2883,5.3051,5.2934,5.2877,5.2925,5.292,5.3043,5.3058,5.31,5.3273,5.3281,5.3156,5.3162,5.3167,5.317,0,0,0,0,0,0,0,5.2552,5.2578,5.283,5.2777,5.2783,5.278,5.2799,5.2915,5.2979,5.2881,5.2881,5.2902,5.3045,5.309,5.3104,5.3284,5.3155,5.3165,5.3172,5.3176,5.3585,5.359,0,0,0,0,0,0,5.2536,5.2568,5.2824,5.2835,5.2662,5.279,5.2811,5.2872,5.2978,5.299,5.2905,5.2901,5.3073,5.3092,5.3111,5.3287,5.3167,5.3177,5.3183,5.3581,5.3586,5.3591,0,0,0,0,0,0,5.2529,5.2559,5.2817,5.2702,5.2734,5.28,5.2869,5.2878,5.2923,5.2996,5.3007,5.294,5.3071,5.3096,5.3227,5.3293,5.3182,5.3191,5.3576,5.3583,5.3589,5.3639,0,0,0,0,0,0,5.2519,5.2557,5.2612,5.2703,5.2741,5.2931,5.2873,5.2884,5.2942,5.2938,5.3031,5.3043,5.307,5.3211,5.3238,5.3306,5.32,5.357,5.3579,5.3587,5.3632,5.3647,5.366,0,0,0,0,0,5.2507,5.2618,5.2615,5.2645,5.2811,5.2934,5.2956,5.2985,5.2947,5.3003,5.305,5.304,5.3281,5.3225,5.3255,5.3327,5.3566,5.3576,5.3586,5.3626,5.3644,5.3659,0,0,0,0,0,0,5.2531,5.263,5.2628,5.2772,5.2845,5.2932,5.3004,5.3003,5.3087,5.308,5.3112,5.3133,5.3266,5.3309,5.3245,5.3472,5.3419,5.3435,5.3439,5.3457,5.347,5.3457,5.3209,0,0,0,0,0,5.2554,5.2646,5.2727,5.2847,5.2884,5.2938,5.2993,5.3009,5.3086,5.3116,5.3173,5.3248,5.334,5.3401,5.349,5.3638,5.3659,5.3703,5.3716,5.3727,5.3741,5.3825,5.3846,5.3624,5.3624,5.3623,0,0,5.2601,5.2666,5.2722,5.2854,5.2912,5.3008,5.2964,5.3066,5.3137,5.3131,5.326,5.3304,5.339,5.3531,5.3596,5.3571,5.3808,5.374,5.3748,5.3757,5.3837,5.3858,5.3877,5.363,5.3629,5.3628,0,0,5.2736,5.2794,5.2901,5.2961,5.3051,5.3086,5.3112,5.32,5.323,5.336,5.3358,5.3443,5.3602,5.3663,5.3715,5.3876,5.387,5.3904,5.3976,5.4057,5.4074,5.409,5.4149,5.4169,5.3917,5.3918,5.3918,0,5.2783,5.2926,5.2956,5.306,5.3118,5.3119,5.3228,5.3284,5.3398,5.3439,5.3409,5.361,5.3667,5.3824,5.3863,5.3905,5.3936,5.3894,5.4069,5.4085,5.4101,5.4157,5.4179,5.3921,5.3921,5.392,5.392,0,5.2981,5.3081,5.3156,5.3268,5.3335,5.344,5.3486,5.355,5.3561,5.3599,5.3732,5.3801,5.3906,5.3944,5.3955,5.4103,5.4085,5.4062,5.401,5.4125,5.4178,5.42,5.3926,5.3925,5.3924,5.3923,0,0,5.3136,5.3264,5.3291,5.3343,5.3442,5.352,5.3626,5.3729,5.3784,5.3863,5.3953,5.4089,5.4069,5.4128,5.4146,5.4217,5.4342,5.4186,5.4189,5.4214,5.4511,5.4528,5.4553,5.4339,5.4343,5.4346,5.4505,0,5.3282,5.3471,5.3502,5.3668,5.3761,5.3764,5.3857,5.3928,5.3967,5.4052,5.4095,5.4191,5.4157,5.4193,5.4264,5.4312,5.4402,5.4301,5.4424,5.4428,5.4403,5.4581,5.4599,5.4745,5.4525,5.4529,5.4532,0,5.3477,5.3563,5.3739,5.3828,5.3869,5.3951,5.4049,5.413,5.4212,5.4235,5.4302,5.4312,5.4423,5.4366,5.4519,5.445,5.4502,5.4533,5.454,5.4553,5.4487,5.46,5.4792,5.4814,5.4565,5.4562,5.456,0,5.3575,5.3734,5.3861,5.3904,5.4011,5.4069,5.4116,5.4194,5.4255,5.434,5.438,5.4476,5.453,5.4604,5.4641,5.4595,5.4793,5.4737,5.4816,5.4815,5.4858,5.4855,5.5063,5.489,5.489,5.4889,5.4889,0,5.3736,5.3844,5.3906,5.3984,5.4105,5.4139,5.4258,5.4304,5.4373,5.446,5.4468,5.4549,5.4592,5.468,5.4708,5.4833,5.4856,5.4879,5.4885,5.4879,5.4876,5.4914,5.4905,5.4895,5.4894,5.4893,5.4892,0,5.3865,5.3911,5.405,5.414,5.4165,5.4251,5.4328,5.4404,5.4443,5.4553,5.4581,5.4642,5.4746,5.479,5.4917,5.4937,5.5079,5.5078,5.5052,5.5055,5.5131,5.5124,5.5371,5.5406,5.5209,5.5211,5.5213,0,5.3965,5.4049,5.4148,5.4208,5.4257,5.4352,5.4414,5.4451,5.4516,5.4616,5.468,5.4785,5.487,5.5036,5.5092,5.519,5.5192,5.5272,5.5206,5.5198,5.5195,5.519,5.5199,5.5284,5.5286,5.5287,5.5289,0,5.4139,5.4158,5.4248,5.4347,5.4421,5.45,5.4578,5.4626,5.4674,5.4747,5.4854,5.492,5.5051,5.5155,5.5257,5.5305,5.5306,5.5309,5.5332,5.5327,5.531,5.5322,5.5086,5.5303,5.5302,5.5301,5.53,5.5299,5.4258,5.4333,5.4415,5.4516,5.4578,5.4651,5.4727,5.4776,5.4867,5.4977,5.4993,5.5108,5.5188,5.5325,5.5378,5.5468,5.5448,5.5482,5.5491,5.5499,5.5504,5.5294,5.5487,5.5486,5.5486,5.5486,5.5485,0,5.4433,5.4486,5.4578,5.4687,5.4767,5.4761,5.4846,5.4913,5.5014,5.509,5.5174,5.5298,5.5399,5.5464,5.5566,5.5626,5.5629,5.5652,5.5649,5.566,5.5516,5.5486,5.5648,5.5648,5.5648,5.5648,5.5648,5.5648,5.4533,5.4661,5.469,5.4848,5.4901,5.5014,5.5064,5.5131,5.5192,5.533,5.5415,5.5456,5.5528,5.5636,5.5729,5.5745,5.5783,5.5807,5.5823,5.5687,5.567,5.5654,5.5626,5.5815,5.5815,5.5959,5.5961,5.5962]},{"header":{"parameterUnit":"m.s-1","parameterCategory":1,"la1":30.2991,"la2":30.254,"lo1":-89.0895,"lo2":-89.0444,"dy":0.0017,"dx":0.0017,"nx":28,"ny":28,"refTime":"2023-10-20T03:00:00:Z","depth":0,"parameterNumber":3,"parameterNumberName":"V-component_of_WINDS"},"data":[0,0,0,0,0,0,0,0,0,0,0,0,0,0,0,0,0,0,0,0,0,0,0,0,0,0,0,0,0,0,0,0,0,0,0,0,0,0,0,0,0,0,0,0,0,0,0,0,0,0,0,0,0,0,0,0,0,0,-0.0214,-0.0214,0,-0.0165,-0.0164,-0.0164,-0.017,-0.0171,-0.0171,-0.0172,-0.0117,-0.0114,-0.0112,0,0,0,0,0,0,0,0,0,0,0,0,0,-0.0311,-0.0309,-0.0214,-0.0214,-0.0213,-0.0165,-0.0164,-0.0163,-0.017,-0.0171,-0.0172,-0.0172,-0.0117,-0.0115,-0.0112,0,0,0,0,0,0,0,0,0,0,0,0,0,-0.0266,-0.0308,-0.0214,-0.021,-0.021,-0.0165,-0.0164,-0.0163,-0.0169,-0.0171,-0.0172,-0.0173,-0.0118,-0.0115,-0.0112,-0.0066,0,0,-0.0101,-0.01,0,0,0,0,0,0,0,0,-0.0268,-0.0262,-0.0212,-0.0211,-0.021,-0.0175,-0.0178,-0.0131,-0.0169,-0.0184,-0.0172,-0.0174,-0.0135,-0.013,-0.0118,-0.0064,-0.0061,-0.0101,-0.0099,-0.0098,-0.0097,0,0,0,0,0,0,0,-0.0271,-0.0264,-0.0195,-0.0211,-0.021,-0.021,-0.0205,-0.0169,-0.0153,-0.0183,-0.0184,-0.0178,-0.0134,-0.0121,-0.0117,-0.0061,-0.0101,-0.0098,-0.0096,-0.0095,0.0032,0.0034,0,0,0,0,0,0,-0.0276,-0.0267,-0.0196,-0.0193,-0.0243,-0.0207,-0.0202,-0.0185,-0.0154,-0.015,-0.0177,-0.0178,-0.0126,-0.0121,-0.0115,-0.006,-0.0098,-0.0094,-0.0093,0.0031,0.0033,0.0034,0,0,0,0,0,0,-0.0278,-0.027,-0.0198,-0.023,-0.0221,-0.0204,-0.0185,-0.0183,-0.017,-0.0149,-0.0146,-0.0167,-0.0127,-0.0119,-0.0079,-0.0058,-0.0093,-0.009,0.0029,0.0032,0.0033,0.005,0,0,0,0,0,0,-0.0281,-0.027,-0.0254,-0.023,-0.0219,-0.0164,-0.0184,-0.0181,-0.0165,-0.0166,-0.0138,-0.0135,-0.0127,-0.0084,-0.0076,-0.0054,-0.0087,0.0028,0.003,0.0033,0.0047,0.0052,0.0056,0,0,0,0,0,-0.0284,-0.025,-0.0253,-0.0244,-0.0198,-0.0163,-0.0157,-0.015,-0.0163,-0.0146,-0.0132,-0.0136,-0.0062,-0.008,-0.007,-0.0048,0.0026,0.003,0.0033,0.0045,0.0051,0.0056,0,0,0,0,0,0,-0.027,-0.0247,-0.025,-0.0207,-0.0187,-0.0164,-0.0142,-0.0145,-0.0119,-0.0122,-0.0113,-0.0107,-0.0066,-0.0053,-0.0073,-0.0003,-0.0019,-0.0014,-0.0013,-0.0007,-0.0003,-0.0007,-0.0085,0,0,0,0,0,-0.0262,-0.0237,-0.0217,-0.0181,-0.0172,-0.0159,-0.0143,-0.014,-0.0118,-0.0109,-0.0093,-0.0071,-0.0043,-0.0024,0.0003,0.0049,0.0055,0.0069,0.0073,0.0077,0.0081,0.0106,0.0113,0.0044,0.0044,0.0044,0,0,-0.0245,-0.0229,-0.0214,-0.0178,-0.0163,-0.0135,-0.0151,-0.0122,-0.0101,-0.0104,-0.0066,-0.0053,-0.0028,0.0016,0.0036,0.0028,0.0101,0.0081,0.0083,0.0086,0.011,0.0117,0.0122,0.0046,0.0046,0.0046,0,0,-0.0201,-0.0186,-0.0155,-0.014,-0.0117,-0.0108,-0.0101,-0.0078,-0.007,-0.0032,-0.0034,-0.0009,0.004,0.0057,0.0073,0.0123,0.0121,0.0132,0.0154,0.0179,0.0184,0.0189,0.0207,0.0213,0.0136,0.0136,0.0136,0,-0.0182,-0.0143,-0.0139,-0.0109,-0.0093,-0.0097,-0.0065,-0.005,-0.0018,-0.0007,-0.0016,0.0043,0.006,0.0107,0.0119,0.0132,0.0141,0.0129,0.0183,0.0187,0.0192,0.0209,0.0216,0.0137,0.0137,0.0137,0.0137,0,-0.0121,-0.0094,-0.0071,-0.0043,-0.0024,0.0006,0.0016,0.0034,0.0035,0.0045,0.0084,0.0104,0.0135,0.0146,0.0148,0.0194,0.0188,0.018,0.0164,0.02,0.0216,0.0222,0.0139,0.0138,0.0138,0.0138,0,0,-0.0065,-0.0036,-0.0028,-0.0015,0.0009,0.0031,0.0062,0.009,0.0106,0.0127,0.0154,0.0194,0.0186,0.0204,0.0208,0.0229,0.0267,0.0219,0.022,0.0228,0.0318,0.0324,0.0331,0.0266,0.0267,0.0268,0.0316,0,-0.0018,0.0034,0.0038,0.0086,0.0112,0.0108,0.0135,0.0153,0.0163,0.0187,0.0198,0.0226,0.0214,0.0224,0.0245,0.0258,0.0286,0.0255,0.0291,0.0292,0.0285,0.034,0.0346,0.0391,0.0323,0.0324,0.0324,0,0.0044,0.0065,0.0115,0.0135,0.0146,0.017,0.0196,0.0218,0.024,0.0245,0.0263,0.0264,0.0297,0.0278,0.0323,0.0302,0.0317,0.0326,0.0328,0.0332,0.0311,0.0346,0.0405,0.0412,0.0334,0.0334,0.0333,0,0.008,0.0121,0.0156,0.0167,0.0192,0.0208,0.022,0.0239,0.0256,0.0279,0.0289,0.0316,0.0331,0.0353,0.0361,0.0347,0.0406,0.0388,0.0412,0.0411,0.0425,0.0424,0.0488,0.0434,0.0434,0.0434,0.0434,0,0.0132,0.0163,0.0172,0.0194,0.0228,0.0233,0.0267,0.0278,0.0295,0.0319,0.0318,0.0341,0.0351,0.0375,0.0382,0.0418,0.0425,0.0431,0.0433,0.0431,0.0431,0.0442,0.0439,0.0435,0.0435,0.0435,0.0434,0,0.0178,0.0185,0.0223,0.0242,0.0248,0.0273,0.029,0.0311,0.0319,0.035,0.0358,0.0372,0.0401,0.0411,0.0447,0.0451,0.0493,0.0492,0.0485,0.0486,0.0509,0.0507,0.0582,0.0592,0.0532,0.0532,0.0533,0,0.0211,0.0234,0.0255,0.027,0.0282,0.0307,0.0323,0.0328,0.0345,0.037,0.0389,0.0417,0.044,0.0487,0.0501,0.0528,0.0528,0.0552,0.0532,0.053,0.0528,0.0527,0.0529,0.0556,0.0557,0.0558,0.0558,0,0.0268,0.027,0.0293,0.0317,0.0335,0.0355,0.0374,0.0387,0.0395,0.0415,0.0443,0.0461,0.0496,0.0524,0.0552,0.0565,0.0563,0.0564,0.0571,0.057,0.0565,0.0568,0.0496,0.0563,0.0562,0.0562,0.0561,0.0561,0.0309,0.0329,0.0346,0.0372,0.0386,0.0403,0.0424,0.0434,0.0457,0.0485,0.0488,0.0519,0.0539,0.0575,0.0589,0.0614,0.0608,0.0618,0.062,0.0623,0.0624,0.0561,0.0619,0.0619,0.0619,0.0619,0.0619,0,0.0366,0.0377,0.04,0.0425,0.0445,0.0439,0.046,0.0477,0.0504,0.0522,0.0544,0.0577,0.0604,0.0619,0.0647,0.0664,0.0664,0.0671,0.067,0.0673,0.0629,0.062,0.067,0.067,0.067,0.067,0.067,0.067,0.0398,0.0432,0.0436,0.0477,0.0488,0.0517,0.0529,0.0545,0.0559,0.0595,0.0617,0.0627,0.0644,0.0672,0.0697,0.0701,0.0711,0.0719,0.0722,0.0681,0.0676,0.0671,0.0663,0.0721,0.0721,0.0764,0.0765,0.0765]}]]